www.pogodaiklimat.ru

Погода и климат >> Архив погоды >> Беларусь >> Пинск


АРХИВ ПОГОДЫ в Пинске

Время (UTC), дата Ветер
(напр.,м/с)
 
Видим.   Явления Облачность Т
(С)
Тd
(С)
f
(%)
Тe
(С)
Тes
(С)
Комфортность P
(гПа)
Po
(гПа)
Тmin
(С)
Tmax
(С)
R
(мм)
R24
(мм)
S
(см)
06 17.07 СЗ 2 10 км 9/9 600 м
[Sc]
+14.5 +11.9 84 +14 +15 прохладно 1007.3 990.6 +12.4
09 17.07 С 1 10 км 10/8 600 м
[Cb calv Ac trans Ci fib]
+17.8 +11.6 67 +19 +21 прохладно 1006.5 990.0
12 17.07 З 4 9000 м слаб. ливневой дождь 10/10 600 м
[Cb calv]
+15.6 +12.3 81 +15 +15 очень
холодно
1007.5 990.8
15 17.07 З 1 10 км {ливн. осадки} 10/8 600 м
[Sc Ci fib]
+16.3 +12.4 78 +17 +18 холодно 1007.9 991.3
18 17.07 З 1 10 км {ливн. осадки} 6/3 1000 м
[Sc Ci fib]
+16.0 +12.1 78 +17 +17 прохладно 1008.2 991.5 +19.3 0.7
21 17.07 З 2 10 км 9/9 600 м
[Sc]
+13.6 +11.5 87 +13 +13 холодно 1008.9 992.1
00 18.07 З 1 9000 м дымка 8/0
[Ac trans]
+12.6 +11.5 93 +13 +13 прохладно 1008.9 992.0
03 18.07 З 2 3900 м дымка 6/0
[Ci fib]
+11.2 +10.8 97 +10 +10 холодно 1009.4 992.4
06 18.07 СЗ 3 9000 м дымка 8/5 1000 м
[Sc Ac trans]
+15.0 +13.0 88 +14 +16 прохладно 1009.8 993.0 +11.1
09 18.07 С 4 10 км в посл. час ливневой дождь 6/6 1000 м
[Sc]
+17.4 +13.7 79 +17 +21 прохладно 1010.2 993.6
12 18.07 СЗ 4
{11}
10 км {ливн. осадки} 8/8 1000 м
[Cu hum]
+20.6 +13.0 62 +23 +25 комфорт 1010.2 993.8
15 18.07 ЮЗ 4
{10}
10 км 8/8 1000 м
[Cb calv]
+21.2 +12.7 58 +23 +24 комфорт 1010.5 994.1
18 18.07 СЗ 1 10 км 4/0
[Ac trans]
+20.1 +12.2 60 +23 +23 комфорт 1011.1 994.7 +22.6 0.7
21 18.07 З 1 9000 м дымка ясно +14.7 +13.0 90 +15 +15 прохладно 1012.9 996.1
00 19.07 З 1 8000 м дымка ясно +13.2 +12.1 93 +13 +13 прохладно 1013.7 996.8
03 19.07 З 1 3600 м дымка ясно +11.5 +11.0 97 +11 +11 холодно 1014.5 997.4
06 19.07 З 1 15 км ясно +17.6 +14.4 82 +19 +26 по сезону 1014.7 998.0 +11.4
09 19.07 СЗ 3 20 км 8/8 1000 м
[Cu hum]
+22.2 +12.3 53 +25 +27 комфорт 1014.7 998.3
12 19.07 З 2 30 км 8/6 1000 м
[Cu hum Ci fib]
+23.4 +13.0 52 +26 +31 жарко 1014.3 998.0
15 19.07 С 2 30 км 4/3 1000 м
[Cu hum Ci fib]
+24.4 +12.4 47 +26 +29 жарко 1013.6 997.4
18 19.07 З 1 10 км ясно +22.4 +11.3 49 +25 +25 комфорт 1013.9 997.6 +25.6
21 19.07 З 1 10 км ясно +15.5 +12.7 83 +16 +16 прохладно 1015.5 998.7
00 20.07 З 1 10 км ясно +14.7 +12.8 88 +15 +15 по сезону 1016.0 999.1
03 20.07 З 1 3600 м дымка 4/0
[Ci fib]
+11.9 +11.4 97 +12 +12 холодно 1016.3 999.2
06 20.07 ЮВ 1 20 км 8/0
[Ci fib]
+20.5 +13.3 63 +24 +30 комфорт 1016.3 999.8 +11.8
09 20.07 ЮЗ 1 10 км слаб. ливневой дождь 10/10 300 м
[Cb calv]
+21.8 +15.2 66 +25 +25 комфорт 1017.1 1000.7
12 20.07 Ю 1 20 км {ливн. осадки} 6/3 1000 м
[Cu hum Ci fib]
+27.1 +13.8 44 +29 +40 жарко 1016.6 1000.5
15 20.07 ЮВ 2 15 км 8/3 1000 м
[Cu hum Ac trans Ci fib]
+26.8 +13.1 43 +29 +31 жарко 1016.1 1000.0
18 20.07 З 1 12 км 6/6 600 м
[Sc]
+23.1 +15.8 63 +27 +27 душно 1016.6 1000.3 +28.0 0.0
21 20.07 Ю 1 9000 м дымка 3/0
[Ac trans]
+16.9 +15.3 90 +18 +18 по сезону 1017.9 1001.1
00 21.07 штиль 0 3900 м дымка ясно +14.4 +14.2 99 +14 +14 по сезону 1018.5 1001.6
03 21.07 Ю 1 3300 м дымка ясно +14.9 +14.9 100 +15 +15 по сезону 1018.0 1001.1
06 21.07 штиль 0 10 км ясно +22.1 +16.4 70 +26 +35 душно 1017.8 1001.4 +13.7
09 21.07 Ю 2 20 км 3/1 1000 м
[Cu hum Ci fib]
+26.4 +15.2 50 +29 +42 жарко 1017.2 1001.1
12 21.07 Ю 2 20 км 8/4 1000 м
[Cu hum Ci fib]
+28.0 +15.3 46 +31 +38 душно 1016.3 1000.3
15 21.07 Ю 2 10 км 10/6 600 м
[Sc Ac trans Ci fib]
+27.7 +15.8 48 +31 +32 душно 1015.7 999.7
18 21.07 СЗ 2 10 км 10/8 1000 м
[Sc Ac trans]
+24.7 +16.8 61 +28 +28 душно 1015.8 999.6 +29.3
21 21.07 З 1 10 км 9/9 600 м
[Sc]
+21.6 +17.0 75 +26 +26 душно 1016.4 1000.0
00 22.07 ЮЗ 2 10 км 9/9 600 м
[Sc]
+19.2 +16.5 84 +21 +21 комфорт 1016.5 999.9
03 22.07 СЗ 2 3900 м слаб. ливневой дождь 10/10 300 м
[Cb calv]
+17.8 +17.2 96 +18 +18 тепло 1016.8 1000.1
06 22.07 ЮЗ 2 3600 м дымка {ливн. осадки} 10/10 300 м
[St]
+18.4 +17.9 97 +20 +20 тепло 1017.2 1000.5 +17.6 2
09 22.07 З 4 10 км 8/6 1000 м
[Cu hum Ci fib]
+21.3 +16.7 75 +25 +29 комфорт 1017.6 1001.1
12 22.07 З 4
{11}
20 км 4/4 1000 м
[Cu hum]
+24.2 +13.7 52 +26 +32 жарко 1017.2 1000.9
15 22.07 З 4
{11}
20 км 8/8 1000 м
[Cu hum]
+25.0 +12.9 47 +27 +28 жарко 1016.2 1000.0
18 22.07 СЗ 2 10 км 4/0
[Ac trans]
+22.5 +13.2 56 +25 +25 комфорт 1016.4 1000.0 +25.5
21 22.07 С 2 10 км ясно +18.1 +12.3 69 +19 +19 по сезону 1017.4 1000.7
00 23.07 СЗ 1 10 км ясно +15.5 +11.4 77 +16 +16 по сезону 1017.3 1000.5
03 23.07 СЗ 1 10 км 3/0
[Ci fib]
+13.1 +10.8 86 +13 +13 прохладно 1017.3 1000.3
06 23.07 СЗ 3 20 км 6/0
[Ac trans Ci fib]
+16.5 +12.8 79 +16 +20 прохладно 1016.8 1000.0 +12.9
09 23.07 СЗ 5 20 км 8/6 600 м
[Sc Ci fib]
+19.2 +13.4 69 +20 +23 по сезону 1016.7 1000.1
12 23.07 С 5-10
{11}
20 км 8/6 1000 м
[Cu hum Ci fib]
+21.1 +11.9 56 +23 +26 комфорт 1016.1 999.6
15 23.07 С 5
{12}
20 км 10/8 600 м
[Cb calv Ci fib]
+22.1 +12.6 55 +25 +25 комфорт 1015.0 998.6
18 23.07 СЗ 2 10 км 6/6 1000 м
[Sc]
+20.6 +13.3 63 +24 +24 комфорт 1015.3 998.8 +23.2
00 24.07 З 1 10 км 3/0
[Ac trans]
+15.4 +12.5 83 +16 +16 по сезону 1015.9 999.1
03 24.07 СЗ 2 9000 м дымка 8/5 1000 м
[Sc Ac trans]
+14.7 +12.9 89 +14 +14 прохладно 1015.7 998.8

 

Местоположение метеостанции Пинск (Брестская область, Беларусь): широта 52.12 долгота 26.06 высота над уровнем моря 142 м.

В архиве по умолчанию представлена погода в Пинске за последнюю неделю. Архивные данные за месяц целиком и за предыдущие месяцы, начиная с января 2011 года, Вы можете получить, выбрав интересующий диапазон дат из раскрывающегося списка и нажав кнопку "Ввод!".


*Определитесь, кто Вы:
робот инопланетянин человек

Внимание! Время в таблицах - всемирное. Для получения местного времени необходимо прибавить поправку, которая равна 3 ч.

Смотрите также архив погоды в соседних городах и на ближайших метеорологических станциях:

Погода в Полесской (Брестская область, Беларусь) (48 км)
Погода в Дрогичине (Брестская область, Беларусь) (66 км)
Погода в Любешове (Волынская область, Украина) (74 км)
Погода в Ганцевичах (Брестская область, Беларусь) (75 км)
Погода в Ивацевичах (Брестская область, Беларусь) (80 км)
Погода в Маневичах (Волынская область, Украина) (100 км)
Погода в Сарнах (Ровенская область, Украина) (101 км)
Погода в Барановичах (Брестская область, Беларусь) (113 км)
Погода в Пружанах (Брестская область, Беларусь) (117 км)
Погода в Житковичах (Гомельская область, Беларусь) (124 км)

Пояснения к столбцам:

Ветер - указаны скорость ветра в м/с - средняя за 10 мин, порывы в срок и между сроками (в фигурных скобках) и направление, откуда дует ветер: С - северный, СВ - северо-восточный, В - восточный, ЮВ - юго-восточный, Ю - южный, ЮЗ - юго-западный, З - западный, СЗ - северо-западный.
Видимость - горизонтальная дальность видимости в метрах или километрах. При видимости от 1 до 10 км при отсутствии осадков обычно наблюдается дымка, при ухудшении видимости до 1 км и менее - туман. В сухую погоду видимость может ухудшаться дымом, пылью или мглою.
Явления - указаны атмосферные явления, наблюдавшиеся в срок или в последний час перед сроком; фигурными скобками обозначены явления, наблюдавшиеся между сроками (за 1-3 часа до срока); квадратными скобками обозначены град или гололедные отложения с указанием их диаметра в мм.
Облачность - указаны через наклонную черту общая и нижняя облачность в баллах и высота нижней границы облаков в метрах; квадратными скобками обозначены формы облаков: Ci - перистые, Cs - перисто-слоистые, Cc - перисто-кучевые, Ac - высококучевые, As - высокослоистые, Sc - слоисто-кучевые, Ns - слоисто-дождевые, Cu - кучевые, Cb - кучево-дождевые. Подробнее классификацию облаков см. в Атласе облаков (PDF).
T - Температура воздуха - температура, измеренная на высоте 2 м над землей.
Td - Температура точки росы - температура, при понижении до которой содержащийся в воздухе водяной пар достигнет насыщения.
f - Относительная влажность воздуха - влажноcть воздуха, измеренная на высоте 2 м над землей.
Te - Эффективная температура - температура, которую ощущает одетый по сезону человек в тени. Характеристика душности погоды. При расчете учитывается влияние влажности воздуха и скорости ветра на теплоощущения человека.
Tes - Эффективная температура на солнце - температура, которую ощущает человек, с поправкой на солнечный нагрев. Характеристика знойности погоды. Зависит от высоты солнца над горизонтом, облачности и скорости ветра. Ночью, в пасмурную погоду, а также при ветре 12 м/с и более поправка равна нулю.
P - Атмосферное давление - приведенное к уровню моря атмосферное давление.
Po - Атмосферное давление - измеренное на уровне метеостанции атмосферное давление.
Tmin - Минимальная температура - минимум температуры воздуха на высоте 2 м над землей.
Tmax - Максимальная температура - максимум температуры воздуха на высоте 2 м над землей.
R - Количество осадков - Количество выпавших осадков за период времени, мм. При наведении курсора мыши на число - период времени, за который выпало указанное количество осадков.
R24 - Количество осадков - Количество выпавших осадков за 24 часа, мм.
S - Снежный покров - Высота снежного покрова, см. При наведении курсора мыши на число - состояние снежного покрова и степень покрытия местности в баллах.